Location: Halle (Saale)
(51.4970°N, 11.9688°E)
Time: 11:36:47
(UTC+01:00)

ISS - Visible Passes

Search period start: 29 November 2022 00:00
Search period end: 09 December 2022 00:00
Orbit: 411 x 420 km, 51.6° (Epoch: 29 November)

Date Brightness Start Highest point End Pass type
(mag) Time Alt. Az. Time Alt. Az. Time Alt. Az.
29 Nov -3.9 17:51:18 10° W 17:54:39 89° NNE 17:55:46 39° E visible
29 Nov -0.5 19:28:05 10° W 19:28:40 14° W 19:28:40 14° W visible
30 Nov -3.8 17:02:34 10° W 17:05:55 85° N 17:09:05 11° E visible
30 Nov -2.8 18:39:20 10° W 18:41:58 45° WSW 18:41:58 45° WSW visible
01 Dec -3.6 17:50:34 10° W 17:53:54 70° SSW 17:55:20 31° ESE visible
01 Dec -0.5 19:27:36 10° W 19:28:13 13° W 19:28:13 13° W visible
02 Dec -3.7 17:01:48 10° W 17:05:08 84° S 17:08:29 10° ESE visible
02 Dec -2.2 18:38:38 10° W 18:41:38 31° SSW 18:41:39 31° SSW visible
03 Dec -2.7 17:49:45 10° W 17:52:56 43° SSW 17:55:11 17° SE visible
03 Dec -0.4 19:28:02 10° WSW 19:28:06 10° WSW 19:28:06 10° WSW visible
04 Dec -3.2 17:00:53 10° W 17:04:10 58° SSW 17:07:27 10° ESE visible
04 Dec -1.1 18:38:13 10° W 18:40:24 16° SW 18:41:49 13° S visible
05 Dec -1.5 17:49:00 10° W 17:51:44 24° SW 17:54:27 10° SSE visible
06 Dec -2.0 16:59:56 10° W 17:02:59 33° SSW 17:06:01 10° SE visible
07 Dec -0.5 17:48:54 10° WSW 17:50:15 12° SW 17:51:36 10° SSW visible
08 Dec -0.7 16:59:12 10° W 17:01:32 18° SW 17:03:51 10° S visible
